星链-3181 (STARLINK-3181 )

导读 | 星芒AI

STARLINK-3181 是由 SpaceX 开发并部署的星链(Starlink)卫星网络中的一颗低轨通信卫星。该卫星属于星链计划的第三批发射任务,旨在为全球用户提供高速互联网服务。它运行在约 550 公里的近地轨道上,采用先进的推进系统和激光通信技术,以提高网络效率和稳定性。STARLINK-3181 与其他星链卫星协同工作,支持偏远地区的宽带接入,推动全球互联网覆盖的普及。

基本信息
目录编号:
51461
目录名称:
STARLINK-3181
国际标识:
2022-010F
轨道中心:
EARTH
卫星名称:
星链-3181
卫星全名:
星链-3181 (STARLINK-3181 )
卫星状态:
在轨 (已飞行1416 天)
发射日期:
2022-02-03 UTC
国别 :
美国 (US)
星等 :
--
轨道信息
数据来源 国际轨道数据
星历时间: 2025-12-19T13:19:38+0800
22小时前
查看轨道信息
半长轴: 6917.889km
偏心率: 0.0001531
轨道倾角: 53.219°
近地点辐角 101.233°
升交点赤经 280.353°
平近点角 258.883°
近地点: 538.692km
远地点: 540.812km
周期: 95.438分钟
每日圈数: 15.088374
详细信息
固有亮度:
5
最大亮度:
2.5
卫星平台:
Starlink v1.5
覆盖范围:
全球
运营商:
太空探索技术公司
运营商所在国:
美国
制造商(研发单位):
太空探索技术公司
制造商所在国:
美国
使用方式:
暂无
卫星简介
星链(Starlink)计划是由太空探索技术公司(SpaceX)提出的一个巨型低轨卫星互联网星座项目,计划在2019年至2024年间在太空搭建由约1.2万颗卫星组成的“星链”网络,其中1584颗将部署在地球上空550千米处的近地轨道,并从2020年开始工作。该卫星仍在工作。
2D轨道图
3D轨道图
轨道高度分析图
轨道倾角分析图
轨道综合分析图
查看轨道综合分析图